SCP
0 0 0 0 0 0 0 0 0 0 0 0 0 -0 -0 -0 -0 -0 -0 -0 -0 -0 -0 0 0 0 0 0 0 0 -0 0 0 -0 -0 0 0 0 0 0 0 0 0 -0 0 0 0
0 0 0 0 0 0 0 0 0 0 0 0 0 -0 -0 -0 -0 -0 -0 -0 0 0 0 0 0 0 0 0 0 0 0 0 0 -0 0 0 0 0 0 0 0 0 0 0 0 0 0
0 0 0 0 0 0 0 0 0 0 0 0 0 0 -0 -0 -0 -0 -0 0 0 0 0 0 -0 -0 0 0 0 0 0 0 0 0 0 0 0 0 0 0 0 0 0 0 0 0 0
0 0 0 0 0 0 0 0 0 0 0 0 0 0 -0 -0 -0 0 -0 0 0 -0 -0 -0 -0 0 0 -0 -0 0 0 -0 0 -0 0 0 0 0 0 0 0 -0 0 0 -0 0 0
0 0 0 0 0 0 0 0 0 0 0 0 -0 -0 -0 -0 -0 -0 -0 -0 -0 -0 -0 0 0 0 0 -0 -0 -0 0 0 0 0 0 0 0 0 0 0 0 0 0 0 0 -0 -0
0 0 0 0 0 0 0 0 0 0 0 0 0 0 0 -0 -0 0 0 -0 0 0 -0 -0 0 0 0 0 -0 -0 -0 0 0 0 0 0 0 0 0 0 0 0 0 0 0 0 0
0 0 0 0 0 0 0 0 0 0 0 0 0 0 -0 0 0 0 0 -0 0 0 0 0 0 0 0 0 -0 -0 -0 -0 0 0 0 0 0 0 0 0 0 0 0 0 0 -0 0
0 0 0 0 0 0 0 0 0 0 0 0 0 0 -0 -0 0 0 -0 0 0 0 0 0 -0 -0 -0 -0 0 0 0 -0 -0 0 0 0 0 0 0 0 0 0 0 0 -0 -0 0
0 0 0 0 0 0 0 0 0 0 0 0 0 0 0 -0 0 0 -0 -0 0 0 0 0 -0 -0 -0 0 -0 -0 0 -0 0 0 0 0 0 0 0 0 0 -0 -0 -0 -0 0 0
0 0 0 0 0 0 0 0 0 0 0 0 0 0 0 -0 0 0 0 0 -0 -0 0 0 -0 -0 -0 -0 -0 -0 0 -0 -0 -0 -0 0 0 0 0 0 0 0 -0 -0 0 0 0
0 0 0 0 0 0 0 0 0 0 0 0 0 0 0 0 0 0 0 0 -0 0 0 0 -0 -0 -0 0 -0 -0 -0 -0 0 -0 -0 0 0 0 0 0 0 0 0 0 0 0 0
0 0 0 0 0 0 0 0 0 0 0 0 0 0 0 0 0 0 0 0 0 0 0 0 0 -0 0 -0 -0 -0 -0 -0 0 0 -0 -0 -0 -0 -0 0 0 0 0 0 0 0 0
0 0 0 0 0 0 0 0 0 0 0 0 0 0 0 0 0 0 0 0 0 0 0 0 0 0 0 0 -0 -0 -0 0 0 0 0 -0 -0 -0 0 -0 0 0 0 0 0 0 0
0 0 0 0 0 0 0 0 0 0 0 0 0 0 0 0 0 0 0 0 0 0 0 0 0 0 0 0 0 0 0 0 0 0 0 0 0 0 -0 0 0 0 0 -0 0 0 0
0 0 0 0 0 0 0 0 0 0 0 0 0 0 0 0 0 0 0 0 0 0 0 0 0 0 0 0 0 0 0 0 0 0 -0 0 0 0 0 0 0 0 0 0 0 0 0
0 0 0 0 0 0 0 0 0 0 0 0 0 0 0 0 0 0 0 0 0 0 0 0 0 0 0 0 0 0 0 0 0 0 0 0 0 0 0 0 0 0 0 0 0 0 0
0 0 0 0 0 0 0 0 0 0 0 0 0 0 0 0 0 0 0 0 0 0 0 0 0 0 0 0 0 0 0 0 0 0 0 0 0 0 0 0 0 0 0 0 0 0 0
0 0 0 0 0 0 0 0 0 0 0 0 0 0 0 0 0 0 0 0 0 0 0 0 0 0 0 0 0 0 0 0 0 0 0 0 0 0 0 0 0 0 0 0 0 0 0
0 0 0 0 0 0 0 0 0 0 0 0 0 0 0 0 0 0 0 0 0 0 0 0 0 0 0 0 0 0 0 0 0 0 0 0 0 0 0 0 0 0 0 0 0 0 0
0 0 0 0 0 0 0 0 0 0 0 0 0 0 0 0 0 0 0 0 0 0 0 0 0 0 0 0 0 0 0 0 0 0 0 0 0 0 0 0 0 0 0 0 0 0 0
0 0 0 0 0 0 0 0 0 0 0 0 0 0 0 0 0 0 0 0 0 0 0 0 0 0 0 0 0 0 0 0 0 0 0 0 0 0 0 0 0 0 0 0 0 0 0
0 0 0 0 0 0 0 0 0 0 0 0 0 0 0 0 0 0 0 0 0 0 0 0 0 0 0 0 0 0 0 0 0 0 0 0 0 0 0 0 0 0 0 0 0 0 0
0 0 0 0 0 0 0 0 0 0 0 0 0 0 0 0 0 0 0 0 0 0 0 0 0 0 0 0 0 0 0 0 0 0 0 0 0 0 0 0 0 0 0 0 0 0 0
0 0 0 0 0 0 0 0 0 0 0 0 0 0 0 0 0 0 0 0 0 0 0 0 0 0 0 0 0 0 0 0 0 0 0 0 0 0 0 0 0 0 0 0 0 0 0
0 0 0 0 0 0 0 0 0 0 0 0 0 0 0 0 0 0 0 0 0 0 0 0 0 0 0 0 0 0 0 0 0 0 0 0 0 0 0 0 0 0 0 0 0 0 0
0 0 0 0 0 0 0 0 0 0 0 0 0 0 0 0 0 0 0 0 0 0 0 0 0 0 0 0 0 0 0 0 0 0 0 0 0 0 0 0 0 0 0 0 0 0 0
0 0 0 0 0 0 0 0 0 0 0 0 0 0 0 0 0 0 0 0 0 0 0 0 0 0 0 0 0 0 0 0 0 0 0 0 0 0 0 0 0 0 0 0 0 0 0
0 0 0 0 0 0 0 0 0 0 0 0 0 0 0 0 0 0 0 0 0 0 0 0 0 0 0 0 0 0 0 0 0 0 0 0 0 0 0 0 0 0 0 0 0 0 0
0 0 0 0 0 0 0 0 0 0 0 0 0 0 0 0 0 0 0 0 0 0 0 0 0 0 0 0 0 0 0 0 0 0 0 0 0 0 0 0 0 0 0 0 0 0 0
Wind_Speed_500mb
7 8 9 10 11 14 14 15 18 20 22 23 26 28 29 30 29 30 28 21 18 19 16 13 11 7 2 0 7 7 4 5 5 18 21 14 11 9 7 8 6 6 8 14 24 31 25
7 8 10 11 12 13 14 17 17 20 23 26 29 31 29 30 29 28 24 17 18 17 9 9 9 4 0 3 9 7 5 3 8 16 16 8 6 5 4 5 6 10 13 24 23 26 12
7 9 11 12 14 15 17 20 21 22 24 26 29 30 30 30 28 25 19 18 19 16 8 8 8 6 5 6 11 4 5 6 8 9 5 3 8 4 1 3 4 5 11 15 7 4 4
8 9 10 13 16 17 19 21 22 23 25 27 29 30 31 30 26 21 16 16 17 14 14 12 10 9 2 9 12 3 6 3 6 6 8 7 11 10 4 3 9 7 9 9 10 14 2
10 10 11 13 15 17 18 21 23 24 26 28 29 30 30 29 24 16 18 18 11 8 11 12 7 10 3 4 5 9 9 5 5 12 9 12 6 0 2 8 10 14 1 4 19 5 4
10 12 12 13 16 18 20 21 23 26 28 29 29 29 28 26 19 13 20 10 10 8 7 11 6 5 5 10 5 7 11 3 6 9 2 2 3 7 8 9 4 2 4 9 9 7 21
10 12 14 15 16 17 19 21 24 26 28 30 30 29 26 22 11 9 21 9 13 5 23 11 14 11 10 6 5 7 13 4 3 4 5 7 10 4 10 13 7 2 4 3 11 7 14
12 12 15 16 18 20 21 22 25 27 29 31 31 28 25 18 5 6 14 11 10 12 16 20 20 24 17 13 2 9 15 6 5 1 3 11 3 9 7 6 8 4 2 7 10 3 17
14 13 16 18 19 22 24 24 26 28 31 31 32 27 23 16 1 1 8 10 7 17 4 11 5 9 6 16 7 8 19 10 5 1 3 8 11 6 5 4 5 5 6 6 7 8 10
16 15 16 18 20 22 25 27 28 30 32 31 31 27 21 13 2 8 6 7 13 18 8 8 5 2 12 12 4 17 24 7 2 3 7 6 9 12 7 1 11 3 13 1 3 5 3
19 18 17 19 21 23 26 29 31 33 33 32 29 27 21 10 7 5 5 9 16 11 7 2 5 5 13 10 2 4 24 11 5 3 9 10 10 12 7 4 8 4 8 7 5 7 7
22 21 20 21 22 25 27 31 33 36 36 34 28 28 21 15 11 10 7 15 4 11 3 2 9 7 8 2 2 6 9 7 4 5 4 9 6 2 5 6 6 6 9 15 8 7 7
25 24 23 22 24 26 28 31 34 36 38 35 27 25 22 16 8 11 7 3 10 7 8 4 6 5 5 5 4 5 7 5 4 7 7 11 9 10 4 10 8 15 13 7 9 10 7
27 27 26 25 26 27 30 32 34 36 40 36 28 23 21 16 13 15 4 9 6 5 10 8 4 5 7 6 7 4 9 4 4 10 4 6 13 10 13 4 3 8 8 10 7 5 7
29 28 27 26 26 28 30 32 35 37 40 37 26 17 14 8 16 16 8 6 13 10 7 10 6 7 6 6 2 6 3 9 8 11 12 8 6 6 9 9 4 2 8 4 12 5 4
33 30 29 27 27 28 30 33 35 37 40 38 26 12 9 16 14 11 8 8 7 8 9 2 4 2 5 9 5 6 1 4 3 3 7 7 2 4 7 2 15 10 5 5 7 4 3
37 34 31 28 28 27 30 32 35 37 38 31 18 2 8 18 9 4 6 10 9 17 4 2 5 6 4 3 3 4 4 5 7 5 10 6 6 10 4 10 3 9 6 11 8 7 9
41 37 33 30 27 26 28 30 34 37 36 26 9 3 1 21 6 5 4 8 6 9 6 2 6 6 5 2 6 5 3 7 16 3 7 3 9 2 1 12 7 4 6 7 9 5 3
45 41 37 32 28 25 25 26 29 33 37 34 19 5 7 22 5 2 7 7 5 7 7 4 4 2 2 5 6 4 6 9 22 9 7 8 4 5 13 11 4 10 3 9 8 5 8
47 45 41 36 30 26 24 22 24 25 29 25 10 5 5 7 9 8 2 5 9 9 1 5 5 5 6 6 12 6 5 12 9 10 15 6 6 12 13 11 7 4 4 4 9 5 6
48 48 43 38 34 27 24 20 19 20 21 16 10 2 2 2 7 5 4 6 6 11 13 15 8 7 7 7 5 4 4 6 11 13 9 8 6 4 6 8 6 7 10 10 12 12 11
49 48 46 42 36 30 26 19 16 16 14 7 5 3 3 4 7 2 6 2 4 11 10 8 9 1 6 9 9 14 7 2 2 10 6 6 2 2 6 4 10 7 14 14 14 13 15
48 48 47 44 39 34 27 20 15 12 9 3 2 3 2 7 4 4 2 3 2 3 1 7 7 6 6 8 12 12 7 7 3 5 4 4 9 6 9 3 5 9 18 19 10 8 10
45 47 46 44 41 37 30 24 17 12 6 5 4 4 3 3 2 3 3 4 6 11 2 5 7 4 6 11 9 7 3 5 10 14 12 10 10 6 7 3 9 12 7 7 13 8 10
47 45 45 44 42 38 33 27 20 14 10 7 6 4 4 3 3 3 2 5 10 6 5 2 7 5 11 4 7 8 8 7 6 2 7 5 9 5 7 9 11 10 10 10 13 13 9
59 45 44 45 43 40 35 29 24 19 13 11 8 5 4 9 8 2 1 2 1 4 8 3 6 5 2 9 7 8 8 8 6 2 13 10 8 7 5 7 12 10 6 21 4 9 14
67 52 45 45 43 40 36 31 27 22 17 14 10 8 5 3 7 7 4 4 3 4 2 5 4 3 3 5 5 7 9 6 7 7 9 4 4 11 6 10 13 8 23 11 5 11 11
67 63 46 46 44 40 37 32 28 24 18 16 14 13 9 5 7 10 9 9 5 3 6 1 5 3 6 4 7 8 7 10 3 7 8 11 11 8 4 4 14 11 5 3 6 4 6
71 69 51 47 44 41 37 33 30 26 19 14 14 13 12 11 8 8 13 25 25 21 4 6 3 4 7 7 2 4 3 1 6 6 1 5 11 7 14 10 8 5 1 7 8 4 2
Wind_Direction_500mb
329 330 331 337 348 343 348 340 341 337 341 344 337 342 342 335 336 331 332 337 330 327 322 325 337 346 357 199 84 77 22 50 75 142 144 132 111 132 133 182 173 194 272 279 287 285 260
320 317 325 336 341 342 344 342 344 339 346 348 344 342 344 338 337 336 340 348 338 334 337 338 352 2 210 130 112 101 49 59 74 143 144 107 43 22 148 209 160 215 253 279 286 279 256
316 330 333 333 337 343 342 345 345 344 347 346 343 341 344 340 340 341 347 358 2 10 18 11 359 343 241 115 145 111 97 102 93 106 100 355 338 1 315 235 263 279 315 323 249 311 277
323 322 331 330 338 341 344 346 344 344 344 344 343 343 344 342 341 345 350 353 354 26 32 22 352 333 185 167 219 203 182 157 66 4 312 319 351 285 207 307 3 46 50 17 283 352 169
311 320 327 333 333 337 341 346 344 345 344 344 344 343 344 344 343 350 351 332 342 346 4 6 358 349 112 293 257 180 189 142 355 346 305 293 306 282 38 76 13 7 133 319 322 253 304
312 319 324 328 334 337 340 344 344 347 346 344 345 342 343 344 347 356 356 353 345 336 338 337 349 5 75 329 337 186 167 168 339 345 48 50 72 61 37 71 151 111 360 309 259 319 46
306 315 322 329 331 331 337 342 345 346 344 344 345 342 343 347 354 12 17 2 358 354 322 273 280 280 302 60 131 141 177 219 264 66 42 7 56 264 230 192 167 166 161 278 253 310 72
299 309 315 320 327 330 334 337 340 342 342 343 344 343 344 345 28 52 34 46 21 328 310 305 258 258 257 271 300 197 201 193 102 89 348 16 280 232 233 131 171 188 9 310 298 193 94
287 301 311 316 324 326 329 332 334 337 338 342 342 343 345 339 45 115 58 39 28 335 310 289 228 241 203 217 235 196 185 170 157 241 203 153 252 310 141 151 142 162 197 197 211 353 53
280 292 301 310 317 320 322 327 331 333 333 337 338 339 340 333 210 186 66 14 350 340 55 280 247 205 193 197 271 221 189 153 59 240 176 233 290 336 40 76 135 96 188 173 28 78 102
277 284 293 304 311 315 320 324 327 328 327 329 333 332 333 314 253 199 301 326 325 327 67 229 166 159 178 169 53 184 200 189 169 263 80 272 314 5 8 11 173 205 140 112 115 94 71
273 280 289 298 307 310 318 321 324 325 324 323 329 323 325 305 248 217 288 328 348 46 253 333 145 155 117 246 27 116 167 157 100 113 11 260 314 343 277 334 43 80 87 46 54 81 47
271 277 285 295 302 310 317 319 323 324 323 320 324 312 310 288 236 210 271 3 47 118 342 327 238 159 139 195 268 155 145 121 134 47 3 342 330 324 9 30 13 51 56 4 11 15 219
266 274 282 292 301 308 313 318 325 328 325 322 321 302 297 273 224 223 251 53 103 277 270 306 10 99 152 151 269 158 114 165 152 106 97 100 343 10 332 48 226 37 130 146 181 207 259
259 266 276 286 294 301 311 320 328 330 330 327 324 306 302 239 206 201 164 83 201 204 264 317 357 90 32 15 199 110 110 182 193 173 170 141 279 324 50 22 55 43 46 164 103 9 64
256 260 268 279 290 302 312 321 326 332 336 335 330 323 169 145 149 154 87 218 226 221 313 335 118 69 113 346 62 78 155 325 134 67 152 205 58 20 308 17 29 88 113 39 5 134 274
251 255 262 271 283 297 308 318 327 334 339 339 329 258 167 172 149 105 149 228 267 270 304 234 164 92 97 110 84 54 358 17 10 64 96 118 98 287 51 34 301 350 25 53 115 108 162
249 250 254 262 273 288 302 317 328 336 345 343 343 59 308 179 80 50 157 206 288 292 321 297 88 96 130 102 76 98 126 14 350 26 65 34 128 103 237 294 238 66 111 109 113 244 105
247 247 249 253 263 277 293 311 324 336 350 355 343 309 44 179 136 267 282 281 273 327 325 19 116 113 95 107 105 77 77 22 26 57 134 181 38 40 354 356 7 71 52 114 107 84 204
244 243 246 247 250 264 278 297 315 332 346 354 354 14 32 111 89 132 72 334 312 313 157 46 113 87 91 77 20 123 66 10 30 71 56 85 114 158 191 207 154 211 211 110 119 123 217
240 241 242 245 248 249 265 283 303 321 338 352 8 59 54 328 20 44 48 8 343 354 1 31 47 47 139 110 56 86 58 16 38 15 41 83 196 191 260 225 194 214 226 197 193 211 184
239 237 237 239 241 245 251 262 284 306 330 341 5 52 57 47 344 350 357 43 61 326 16 339 114 81 41 142 177 193 139 170 225 12 66 17 228 108 303 258 231 255 268 254 225 243 242
237 235 234 235 236 239 242 247 257 278 315 284 152 84 24 3 13 94 297 339 65 335 85 17 143 98 84 168 119 106 105 127 119 142 124 99 132 108 248 356 330 295 231 228 219 191 192
234 232 231 230 231 233 234 234 235 241 251 229 181 180 150 256 82 142 11 340 348 333 255 46 43 64 105 135 120 104 114 274 267 250 181 145 130 138 214 17 248 248 297 204 207 215 222
229 228 228 226 226 227 228 227 224 223 222 208 179 172 145 144 185 283 308 306 320 355 34 47 48 93 139 131 57 32 348 9 273 129 238 180 130 176 179 204 295 311 262 193 185 248 211
221 226 223 222 221 220 221 221 216 213 213 209 197 151 148 125 237 209 240 326 237 346 358 67 78 116 105 75 74 156 217 224 288 336 56 82 94 128 133 210 236 242 311 5 105 277 209
216 218 222 218 218 216 215 215 213 210 211 210 209 203 182 203 202 179 191 187 154 117 157 314 337 131 117 96 119 165 226 207 226 205 192 81 51 187 175 239 285 251 303 318 163 248 170
210 209 222 217 215 214 211 209 208 206 209 211 214 219 219 225 232 225 216 211 185 188 145 199 53 310 58 112 154 204 181 223 197 233 192 185 167 209 114 215 275 344 3 210 239 40 210
210 204 216 215 211 210 208 205 203 202 203 208 215 217 233 241 253 244 250 242 253 258 288 220 208 187 176 98 189 107 178 68 163 234 38 237 192 193 178 218 271 325 253 118 62 141 171
Wind_Speed_850mb
7 8 9 10 11 14 14 15 18 20 22 23 26 28 29 30 29 30 28 21 18 19 16 13 11 7 2 0 7 7 4 5 5 18 21 14 11 9 7 8 6 6 8 14 24 31 25
7 8 10 11 12 13 14 17 17 20 23 26 29 31 29 30 29 28 24 17 18 17 9 9 9 4 0 3 9 7 5 3 8 16 16 8 6 5 4 5 6 10 13 24 23 26 12
7 9 11 12 14 15 17 20 21 22 24 26 29 30 30 30 28 25 19 18 19 16 8 8 8 6 5 6 11 4 5 6 8 9 5 3 8 4 1 3 4 5 11 15 7 4 4
8 9 10 13 16 17 19 21 22 23 25 27 29 30 31 30 26 21 16 16 17 14 14 12 10 9 2 9 12 3 6 3 6 6 8 7 11 10 4 3 9 7 9 9 10 14 2
10 10 11 13 15 17 18 21 23 24 26 28 29 30 30 29 24 16 18 18 11 8 11 12 7 10 3 4 5 9 9 5 5 12 9 12 6 0 2 8 10 14 1 4 19 5 4
10 12 12 13 16 18 20 21 23 26 28 29 29 29 28 26 19 13 20 10 10 8 7 11 6 5 5 10 5 7 11 3 6 9 2 2 3 7 8 9 4 2 4 9 9 7 21
10 12 14 15 16 17 19 21 24 26 28 30 30 29 26 22 11 9 21 9 13 5 23 11 14 11 10 6 5 7 13 4 3 4 5 7 10 4 10 13 7 2 4 3 11 7 14
12 12 15 16 18 20 21 22 25 27 29 31 31 28 25 18 5 6 14 11 10 12 16 20 20 24 17 13 2 9 15 6 5 1 3 11 3 9 7 6 8 4 2 7 10 3 17
14 13 16 18 19 22 24 24 26 28 31 31 32 27 23 16 1 1 8 10 7 17 4 11 5 9 6 16 7 8 19 10 5 1 3 8 11 6 5 4 5 5 6 6 7 8 10
16 15 16 18 20 22 25 27 28 30 32 31 31 27 21 13 2 8 6 7 13 18 8 8 5 2 12 12 4 17 24 7 2 3 7 6 9 12 7 1 11 3 13 1 3 5 3
19 18 17 19 21 23 26 29 31 33 33 32 29 27 21 10 7 5 5 9 16 11 7 2 5 5 13 10 2 4 24 11 5 3 9 10 10 12 7 4 8 4 8 7 5 7 7
22 21 20 21 22 25 27 31 33 36 36 34 28 28 21 15 11 10 7 15 4 11 3 2 9 7 8 2 2 6 9 7 4 5 4 9 6 2 5 6 6 6 9 15 8 7 7
25 24 23 22 24 26 28 31 34 36 38 35 27 25 22 16 8 11 7 3 10 7 8 4 6 5 5 5 4 5 7 5 4 7 7 11 9 10 4 10 8 15 13 7 9 10 7
27 27 26 25 26 27 30 32 34 36 40 36 28 23 21 16 13 15 4 9 6 5 10 8 4 5 7 6 7 4 9 4 4 10 4 6 13 10 13 4 3 8 8 10 7 5 7
29 28 27 26 26 28 30 32 35 37 40 37 26 17 14 8 16 16 8 6 13 10 7 10 6 7 6 6 2 6 3 9 8 11 12 8 6 6 9 9 4 2 8 4 12 5 4
33 30 29 27 27 28 30 33 35 37 40 38 26 12 9 16 14 11 8 8 7 8 9 2 4 2 5 9 5 6 1 4 3 3 7 7 2 4 7 2 15 10 5 5 7 4 3
37 34 31 28 28 27 30 32 35 37 38 31 18 2 8 18 9 4 6 10 9 17 4 2 5 6 4 3 3 4 4 5 7 5 10 6 6 10 4 10 3 9 6 11 8 7 9
41 37 33 30 27 26 28 30 34 37 36 26 9 3 1 21 6 5 4 8 6 9 6 2 6 6 5 2 6 5 3 7 16 3 7 3 9 2 1 12 7 4 6 7 9 5 3
45 41 37 32 28 25 25 26 29 33 37 34 19 5 7 22 5 2 7 7 5 7 7 4 4 2 2 5 6 4 6 9 22 9 7 8 4 5 13 11 4 10 3 9 8 5 8
47 45 41 36 30 26 24 22 24 25 29 25 10 5 5 7 9 8 2 5 9 9 1 5 5 5 6 6 12 6 5 12 9 10 15 6 6 12 13 11 7 4 4 4 9 5 6
48 48 43 38 34 27 24 20 19 20 21 16 10 2 2 2 7 5 4 6 6 11 13 15 8 7 7 7 5 4 4 6 11 13 9 8 6 4 6 8 6 7 10 10 12 12 11
49 48 46 42 36 30 26 19 16 16 14 7 5 3 3 4 7 2 6 2 4 11 10 8 9 1 6 9 9 14 7 2 2 10 6 6 2 2 6 4 10 7 14 14 14 13 15
48 48 47 44 39 34 27 20 15 12 9 3 2 3 2 7 4 4 2 3 2 3 1 7 7 6 6 8 12 12 7 7 3 5 4 4 9 6 9 3 5 9 18 19 10 8 10
45 47 46 44 41 37 30 24 17 12 6 5 4 4 3 3 2 3 3 4 6 11 2 5 7 4 6 11 9 7 3 5 10 14 12 10 10 6 7 3 9 12 7 7 13 8 10
47 45 45 44 42 38 33 27 20 14 10 7 6 4 4 3 3 3 2 5 10 6 5 2 7 5 11 4 7 8 8 7 6 2 7 5 9 5 7 9 11 10 10 10 13 13 9
59 45 44 45 43 40 35 29 24 19 13 11 8 5 4 9 8 2 1 2 1 4 8 3 6 5 2 9 7 8 8 8 6 2 13 10 8 7 5 7 12 10 6 21 4 9 14
67 52 45 45 43 40 36 31 27 22 17 14 10 8 5 3 7 7 4 4 3 4 2 5 4 3 3 5 5 7 9 6 7 7 9 4 4 11 6 10 13 8 23 11 5 11 11
67 63 46 46 44 40 37 32 28 24 18 16 14 13 9 5 7 10 9 9 5 3 6 1 5 3 6 4 7 8 7 10 3 7 8 11 11 8 4 4 14 11 5 3 6 4 6
71 69 51 47 44 41 37 33 30 26 19 14 14 13 12 11 8 8 13 25 25 21 4 6 3 4 7 7 2 4 3 1 6 6 1 5 11 7 14 10 8 5 1 7 8 4 2
Wind_Direction_850mb
329 330 331 337 348 343 348 340 341 337 341 344 337 342 342 335 336 331 332 337 330 327 322 325 337 346 357 199 84 77 22 50 75 142 144 132 111 132 133 182 173 194 272 279 287 285 260
320 317 325 336 341 342 344 342 344 339 346 348 344 342 344 338 337 336 340 348 338 334 337 338 352 2 210 130 112 101 49 59 74 143 144 107 43 22 148 209 160 215 253 279 286 279 256
316 330 333 333 337 343 342 345 345 344 347 346 343 341 344 340 340 341 347 358 2 10 18 11 359 343 241 115 145 111 97 102 93 106 100 355 338 1 315 235 263 279 315 323 249 311 277
323 322 331 330 338 341 344 346 344 344 344 344 343 343 344 342 341 345 350 353 354 26 32 22 352 333 185 167 219 203 182 157 66 4 312 319 351 285 207 307 3 46 50 17 283 352 169
311 320 327 333 333 337 341 346 344 345 344 344 344 343 344 344 343 350 351 332 342 346 4 6 358 349 112 293 257 180 189 142 355 346 305 293 306 282 38 76 13 7 133 319 322 253 304
312 319 324 328 334 337 340 344 344 347 346 344 345 342 343 344 347 356 356 353 345 336 338 337 349 5 75 329 337 186 167 168 339 345 48 50 72 61 37 71 151 111 360 309 259 319 46
306 315 322 329 331 331 337 342 345 346 344 344 345 342 343 347 354 12 17 2 358 354 322 273 280 280 302 60 131 141 177 219 264 66 42 7 56 264 230 192 167 166 161 278 253 310 72
299 309 315 320 327 330 334 337 340 342 342 343 344 343 344 345 28 52 34 46 21 328 310 305 258 258 257 271 300 197 201 193 102 89 348 16 280 232 233 131 171 188 9 310 298 193 94
287 301 311 316 324 326 329 332 334 337 338 342 342 343 345 339 45 115 58 39 28 335 310 289 228 241 203 217 235 196 185 170 157 241 203 153 252 310 141 151 142 162 197 197 211 353 53
280 292 301 310 317 320 322 327 331 333 333 337 338 339 340 333 210 186 66 14 350 340 55 280 247 205 193 197 271 221 189 153 59 240 176 233 290 336 40 76 135 96 188 173 28 78 102
277 284 293 304 311 315 320 324 327 328 327 329 333 332 333 314 253 199 301 326 325 327 67 229 166 159 178 169 53 184 200 189 169 263 80 272 314 5 8 11 173 205 140 112 115 94 71
273 280 289 298 307 310 318 321 324 325 324 323 329 323 325 305 248 217 288 328 348 46 253 333 145 155 117 246 27 116 167 157 100 113 11 260 314 343 277 334 43 80 87 46 54 81 47
271 277 285 295 302 310 317 319 323 324 323 320 324 312 310 288 236 210 271 3 47 118 342 327 238 159 139 195 268 155 145 121 134 47 3 342 330 324 9 30 13 51 56 4 11 15 219
266 274 282 292 301 308 313 318 325 328 325 322 321 302 297 273 224 223 251 53 103 277 270 306 10 99 152 151 269 158 114 165 152 106 97 100 343 10 332 48 226 37 130 146 181 207 259
259 266 276 286 294 301 311 320 328 330 330 327 324 306 302 239 206 201 164 83 201 204 264 317 357 90 32 15 199 110 110 182 193 173 170 141 279 324 50 22 55 43 46 164 103 9 64
256 260 268 279 290 302 312 321 326 332 336 335 330 323 169 145 149 154 87 218 226 221 313 335 118 69 113 346 62 78 155 325 134 67 152 205 58 20 308 17 29 88 113 39 5 134 274
251 255 262 271 283 297 308 318 327 334 339 339 329 258 167 172 149 105 149 228 267 270 304 234 164 92 97 110 84 54 358 17 10 64 96 118 98 287 51 34 301 350 25 53 115 108 162
249 250 254 262 273 288 302 317 328 336 345 343 343 59 308 179 80 50 157 206 288 292 321 297 88 96 130 102 76 98 126 14 350 26 65 34 128 103 237 294 238 66 111 109 113 244 105
247 247 249 253 263 277 293 311 324 336 350 355 343 309 44 179 136 267 282 281 273 327 325 19 116 113 95 107 105 77 77 22 26 57 134 181 38 40 354 356 7 71 52 114 107 84 204
244 243 246 247 250 264 278 297 315 332 346 354 354 14 32 111 89 132 72 334 312 313 157 46 113 87 91 77 20 123 66 10 30 71 56 85 114 158 191 207 154 211 211 110 119 123 217
240 241 242 245 248 249 265 283 303 321 338 352 8 59 54 328 20 44 48 8 343 354 1 31 47 47 139 110 56 86 58 16 38 15 41 83 196 191 260 225 194 214 226 197 193 211 184
239 237 237 239 241 245 251 262 284 306 330 341 5 52 57 47 344 350 357 43 61 326 16 339 114 81 41 142 177 193 139 170 225 12 66 17 228 108 303 258 231 255 268 254 225 243 242
237 235 234 235 236 239 242 247 257 278 315 284 152 84 24 3 13 94 297 339 65 335 85 17 143 98 84 168 119 106 105 127 119 142 124 99 132 108 248 356 330 295 231 228 219 191 192
234 232 231 230 231 233 234 234 235 241 251 229 181 180 150 256 82 142 11 340 348 333 255 46 43 64 105 135 120 104 114 274 267 250 181 145 130 138 214 17 248 248 297 204 207 215 222
229 228 228 226 226 227 228 227 224 223 222 208 179 172 145 144 185 283 308 306 320 355 34 47 48 93 139 131 57 32 348 9 273 129 238 180 130 176 179 204 295 311 262 193 185 248 211
221 226 223 222 221 220 221 221 216 213 213 209 197 151 148 125 237 209 240 326 237 346 358 67 78 116 105 75 74 156 217 224 288 336 56 82 94 128 133 210 236 242 311 5 105 277 209
216 218 222 218 218 216 215 215 213 210 211 210 209 203 182 203 202 179 191 187 154 117 157 314 337 131 117 96 119 165 226 207 226 205 192 81 51 187 175 239 285 251 303 318 163 248 170
210 209 222 217 215 214 211 209 208 206 209 211 214 219 219 225 232 225 216 211 185 188 145 199 53 310 58 112 154 204 181 223 197 233 192 185 167 209 114 215 275 344 3 210 239 40 210
210 204 216 215 211 210 208 205 203 202 203 208 215 217 233 241 253 244 250 242 253 258 288 220 208 187 176 98 189 107 178 68 163 234 38 237 192 193 178 218 271 325 253 118 62 141 171